Time,TemperatureF,DewpointF,PressureIn,WindDirection,WindDirectionDegrees,WindSpeedMPH,WindSpeedGustMPH,Humidity,HourlyPrecipIn,Conditions,Clouds,dailyrainin,SoftwareType,DateUTC
2013-06-15 00:24:00,60.0,15.0,29.52,North,1,1.0,-999.0,17,-99.99,,,-99.99,,2013-06-15 06:24:00,
2013-06-15 00:33:00,60.0,15.0,29.52,North,1,1.0,-999.0,17,-99.99,,,-99.99,,2013-06-15 06:33:00,
2013-06-15 00:43:00,59.0,16.0,29.53,West,281,0.0,-999.0,18,-99.99,,,-99.99,,2013-06-15 06:43:00,
2013-06-15 00:53:00,59.0,16.0,29.52,WNW,300,0.0,-999.0,18,-99.99,,,-99.99,,2013-06-15 06:53:00,
2013-06-15 01:01:00,59.0,16.0,29.52,WNW,300,0.0,-999.0,18,-99.99,,,-99.99,,2013-06-15 07:01:00,
2013-06-15 01:11:00,58.0,15.0,29.53,WNW,300,1.0,-999.0,18,-99.99,,,-99.99,,2013-06-15 07:11:00,
2013-06-15 01:53:00,54.0,19.0,29.54,NW,304,1.0,-999.0,25,-99.99,,,-99.99,,2013-06-15 07:53:00,
2013-06-15 02:53:00,53.0,16.0,29.55,NW,325,0.0,-999.0,23,-99.99,,,-99.99,,2013-06-15 08:53:00,
2013-06-15 03:02:00,53.0,16.0,29.55,NW,325,0.0,-999.0,23,-99.99,,,-99.99,,2013-06-15 09:02:00,
2013-06-15 03:22:00,53.0,15.0,29.56,NW,325,1.0,-999.0,22,-99.99,,,-99.99,,2013-06-15 09:22:00,
2013-06-15 03:43:00,53.0,15.0,29.55,North,1,2.0,-999.0,22,-99.99,,,-99.99,,2013-06-15 09:43:00,
2013-06-15 03:52:00,52.0,15.0,29.55,North,1,1.0,-999.0,23,-99.99,,,-99.99,,2013-06-15 09:52:00,
2013-06-15 04:02:00,52.0,15.0,29.55,North,1,1.0,-999.0,23,-99.99,,,-99.99,,2013-06-15 10:02:00,
2013-06-15 04:23:00,52.0,15.0,29.55,North,1,2.0,-999.0,23,-99.99,,,-99.99,,2013-06-15 10:23:00,
2013-06-15 04:33:00,52.0,15.0,29.55,North,1,2.0,-999.0,23,-99.99,,,-99.99,,2013-06-15 10:33:00,
2013-06-15 04:43:00,52.0,16.0,29.55,NNE,32,3.0,-999.0,24,-99.99,,,-99.99,,2013-06-15 10:43:00,
2013-06-15 05:11:00,50.0,16.0,29.58,NNE,31,3.0,-999.0,25,-99.99,,,-99.99,,2013-06-15 11:11:00,
2013-06-15 05:22:00,51.0,16.0,29.58,NE,46,2.0,-999.0,24,-99.99,,,-99.99,,2013-06-15 11:22:00,
2013-06-15 05:33:00,51.0,16.0,29.58,NE,46,2.0,-999.0,24,-99.99,,,-99.99,,2013-06-15 11:33:00,
2013-06-15 05:43:00,51.0,15.0,29.59,NE,35,3.0,-999.0,23,-99.99,,,-99.99,,2013-06-15 11:43:00,
2013-06-15 05:53:00,53.0,14.0,29.59,NNE,25,3.0,-999.0,21,-99.99,,,-99.99,,2013-06-15 11:53:00,
2013-06-15 06:01:00,53.0,14.0,29.59,NNE,25,3.0,-999.0,21,-99.99,,,-99.99,,2013-06-15 12:01:00,
2013-06-15 06:22:00,54.0,16.0,29.59,NE,47,2.0,-999.0,22,-99.99,,,-99.99,,2013-06-15 12:22:00,
2013-06-15 06:33:00,54.0,16.0,29.59,NE,47,2.0,-999.0,22,-99.99,,,-99.99,,2013-06-15 12:33:00,
2013-06-15 06:43:00,52.0,17.0,29.64,North,1,1.0,-999.0,25,-99.99,,,-99.99,,2013-06-15 12:43:00,
2013-06-15 06:52:00,52.0,20.0,29.63,ENE,58,5.0,-999.0,28,-99.99,,,-99.99,,2013-06-15 12:52:00,
2013-06-15 07:02:00,52.0,20.0,29.63,ENE,58,5.0,-999.0,28,-99.99,,,-99.99,,2013-06-15 13:02:00,
2013-06-15 07:11:00,56.0,19.0,29.60,NE,56,3.0,-999.0,23,-99.99,,,-99.99,,2013-06-15 13:11:00,
2013-06-15 07:22:00,59.0,19.0,29.59,North,350,6.0,-999.0,21,-99.99,,,-99.99,,2013-06-15 13:22:00,
2013-06-15 07:32:00,59.0,19.0,29.59,North,350,6.0,-999.0,21,-99.99,,,-99.99,,2013-06-15 13:32:00,
2013-06-15 07:43:00,60.0,23.0,29.60,ENE,66,4.0,-999.0,24,-99.99,,,-99.99,,2013-06-15 13:43:00,
2013-06-15 07:53:00,63.0,22.0,29.61,NE,47,3.0,-999.0,21,-99.99,,,-99.99,,2013-06-15 13:53:00,
2013-06-15 08:01:00,63.0,22.0,29.61,NE,47,3.0,-999.0,21,-99.99,,,-99.99,,2013-06-15 14:01:00,
2013-06-15 08:12:00,66.0,24.0,29.59,North,11,2.0,-999.0,20,-99.99,,,-99.99,,2013-06-15 14:12:00,
2013-06-15 08:22:00,69.0,27.0,29.58,North,7,3.0,-999.0,21,-99.99,,,-99.99,,2013-06-15 14:22:00,
2013-06-15 08:34:00,69.0,27.0,29.58,North,7,3.0,-999.0,21,-99.99,,,-99.99,,2013-06-15 14:34:00,
2013-06-15 08:43:00,71.0,29.0,29.56,NNW,345,2.0,-999.0,21,-99.99,,,-99.99,,2013-06-15 14:43:00,
2013-06-15 08:53:00,71.0,29.0,29.56,NNW,345,2.0,-999.0,21,-99.99,,,-99.99,,2013-06-15 14:53:00,
2013-06-15 09:02:00,73.0,32.0,29.61,North,357,1.0,-999.0,22,-99.99,,,-99.99,,2013-06-15 15:02:00,
2013-06-15 09:11:00,75.0,34.0,29.59,North,357,1.0,-999.0,22,-99.99,,,-99.99,,2013-06-15 15:11:00,
2013-06-15 09:22:00,77.0,35.0,29.57,ENE,70,1.0,-999.0,22,-99.99,,,-99.99,,2013-06-15 15:22:00,
2013-06-15 09:33:00,77.0,35.0,29.57,ENE,70,1.0,-999.0,22,-99.99,,,-99.99,,2013-06-15 15:33:00,
2013-06-15 09:43:00,78.0,34.0,29.57,East,84,1.0,-999.0,20,-99.99,,,-99.99,,2013-06-15 15:43:00,
2013-06-15 09:53:00,80.0,33.0,29.62,ENE,67,2.0,-999.0,18,-99.99,,,-99.99,,2013-06-15 15:53:00,
2013-06-15 10:01:00,80.0,33.0,29.62,ENE,67,2.0,-999.0,18,-99.99,,,-99.99,,2013-06-15 16:01:00,
2013-06-15 10:11:00,79.0,32.0,29.62,East,101,1.0,-999.0,18,-99.99,,,-99.99,,2013-06-15 16:11:00,
2013-06-15 10:22:00,79.0,32.0,29.62,East,101,1.0,-999.0,18,-99.99,,,-99.99,,2013-06-15 16:22:00,
2013-06-15 10:33:00,81.0,27.0,29.60,SSE,150,2.0,-999.0,14,-99.99,,,-99.99,,2013-06-15 16:33:00,
2013-06-15 10:43:00,81.0,29.0,29.61,South,182,2.0,-999.0,15,-99.99,,,-99.99,,2013-06-15 16:43:00,
2013-06-15 10:53:00,81.0,29.0,29.61,South,182,2.0,-999.0,15,-99.99,,,-99.99,,2013-06-15 16:53:00,
2013-06-15 11:02:00,83.0,29.0,29.63,SSW,193,1.0,-999.0,14,-99.99,,,-99.99,,2013-06-15 17:02:00,
2013-06-15 11:11:00,83.0,27.0,29.63,SSW,193,2.0,-999.0,13,-99.99,,,-99.99,,2013-06-15 17:11:00,
2013-06-15 11:21:00,83.0,27.0,29.63,SSW,193,2.0,-999.0,13,-99.99,,,-99.99,,2013-06-15 17:21:00,
2013-06-15 11:32:00,85.0,29.0,29.62,South,185,2.0,-999.0,13,-99.99,,,-99.99,,2013-06-15 17:32:00,
2013-06-15 11:43:00,84.0,28.0,29.61,WSW,249,5.0,-999.0,13,-99.99,,,-99.99,,2013-06-15 17:43:00,
2013-06-15 11:52:00,84.0,28.0,29.61,WSW,249,5.0,-999.0,13,-99.99,,,-99.99,,2013-06-15 17:52:00,
2013-06-15 12:01:00,86.0,27.0,29.62,SW,231,2.0,-999.0,12,-99.99,,,-99.99,,2013-06-15 18:01:00,
2013-06-15 12:11:00,86.0,27.0,29.61,SW,235,5.0,-999.0,12,-99.99,,,-99.99,,2013-06-15 18:11:00,
2013-06-15 12:22:00,86.0,27.0,29.61,SW,235,5.0,-999.0,12,-99.99,,,-99.99,,2013-06-15 18:22:00,
2013-06-15 12:32:00,87.0,28.0,29.61,SW,219,6.0,-999.0,12,-99.99,,,-99.99,,2013-06-15 18:32:00,
2013-06-15 12:43:00,87.0,28.0,29.59,WSW,245,8.0,-999.0,12,-99.99,,,-99.99,,2013-06-15 18:43:00,
2013-06-15 12:53:00,87.0,28.0,29.59,WSW,245,8.0,-999.0,12,-99.99,,,-99.99,,2013-06-15 18:53:00,
2013-06-15 13:01:00,86.0,27.0,29.63,SSW,196,10.0,-999.0,12,-99.99,,,-99.99,,2013-06-15 19:01:00,
2013-06-15 13:11:00,87.0,28.0,29.63,WSW,251,11.0,-999.0,12,-99.99,,,-99.99,,2013-06-15 19:11:00,
2013-06-15 13:22:00,87.0,28.0,29.63,WSW,251,11.0,-999.0,12,-99.99,,,-99.99,,2013-06-15 19:22:00,
2013-06-15 13:33:00,86.0,27.0,29.63,WNW,283,7.0,-999.0,12,-99.99,,,-99.99,,2013-06-15 19:33:00,
2013-06-15 13:43:00,88.0,27.0,29.61,West,281,5.0,-999.0,11,-99.99,,,-99.99,,2013-06-15 19:43:00,
2013-06-15 13:52:00,88.0,27.0,29.61,West,281,5.0,-999.0,11,-99.99,,,-99.99,,2013-06-15 19:52:00,
2013-06-15 14:02:00,87.0,28.0,29.62,WSW,246,12.0,-999.0,12,-99.99,,,-99.99,,2013-06-15 20:02:00,
2013-06-15 14:11:00,86.0,27.0,29.63,West,265,12.0,-999.0,12,-99.99,,,-99.99,,2013-06-15 20:11:00,
2013-06-15 14:22:00,86.0,27.0,29.63,West,265,12.0,-999.0,12,-99.99,,,-99.99,,2013-06-15 20:22:00,
2013-06-15 14:33:00,87.0,28.0,29.62,SW,229,7.0,-999.0,12,-99.99,,,-99.99,,2013-06-15 20:33:00,
2013-06-15 14:43:00,89.0,30.0,29.62,South,181,3.0,-999.0,12,-99.99,,,-99.99,,2013-06-15 20:43:00,
2013-06-15 14:52:00,89.0,30.0,29.62,South,181,3.0,-999.0,12,-99.99,,,-99.99,,2013-06-15 20:52:00,
2013-06-15 15:01:00,87.0,28.0,29.59,WSW,239,5.0,-999.0,12,-99.99,,,-99.99,,2013-06-15 21:01:00,
2013-06-15 15:11:00,88.0,29.0,29.59,NW,321,7.0,-999.0,12,-99.99,,,-99.99,,2013-06-15 21:11:00,
2013-06-15 15:22:00,88.0,29.0,29.59,NW,321,7.0,-999.0,12,-99.99,,,-99.99,,2013-06-15 21:22:00,
2013-06-15 15:33:00,87.0,28.0,29.57,West,274,6.0,-999.0,12,-99.99,,,-99.99,,2013-06-15 21:33:00,
2013-06-15 15:42:00,85.0,29.0,29.59,WNW,294,6.0,-999.0,13,-99.99,,,-99.99,,2013-06-15 21:42:00,
2013-06-15 15:52:00,85.0,29.0,29.59,WNW,294,6.0,-999.0,13,-99.99,,,-99.99,,2013-06-15 21:52:00,
2013-06-15 16:01:00,82.0,31.0,29.63,WNW,284,16.0,-999.0,16,-99.99,,,-99.99,,2013-06-15 22:01:00,
2013-06-15 16:11:00,81.0,31.0,29.64,West,268,9.0,-999.0,16,-99.99,,,-99.99,,2013-06-15 22:11:00,
2013-06-15 16:22:00,81.0,31.0,29.64,West,268,9.0,-999.0,16,-99.99,,,-99.99,,2013-06-15 22:22:00,
2013-06-15 16:32:00,82.0,31.0,29.65,WNW,287,5.0,-999.0,16,-99.99,,,-99.99,,2013-06-15 22:32:00,
2013-06-15 16:42:00,82.0,31.0,29.64,ENE,72,1.0,-999.0,16,-99.99,,,-99.99,,2013-06-15 22:42:00,
2013-06-15 16:53:00,82.0,31.0,29.64,ENE,72,1.0,-999.0,16,-99.99,,,-99.99,,2013-06-15 22:53:00,
2013-06-15 17:02:00,81.0,31.0,29.65,ENE,71,2.0,-999.0,16,-99.99,,,-99.99,,2013-06-15 23:02:00,
2013-06-15 17:11:00,78.0,41.0,29.66,West,272,11.0,-999.0,27,-99.99,,,-99.99,,2013-06-15 23:11:00,
2013-06-15 17:22:00,78.0,41.0,29.66,West,272,11.0,-999.0,27,-99.99,,,-99.99,,2013-06-15 23:22:00,
2013-06-15 17:42:00,71.0,43.0,29.78,West,281,12.0,-999.0,36,-99.99,,,-99.99,,2013-06-15 23:42:00,
2013-06-15 17:53:00,71.0,43.0,29.78,West,281,12.0,-999.0,36,-99.99,,,-99.99,,2013-06-15 23:53:00,
2013-06-15 18:01:00,71.0,40.0,29.77,WNW,283,12.0,-999.0,33,-99.99,,,-99.99,,2013-06-16 00:01:00,
2013-06-15 18:11:00,71.0,41.0,29.78,WNW,287,4.0,-999.0,34,-99.99,,,-99.99,,2013-06-16 00:11:00,
2013-06-15 18:22:00,71.0,41.0,29.78,WNW,287,4.0,-999.0,34,-99.99,,,-99.99,,2013-06-16 00:22:00,
2013-06-15 18:33:00,70.0,43.0,29.79,West,263,6.0,-999.0,37,-99.99,,,-99.99,,2013-06-16 00:33:00,
2013-06-15 18:43:00,70.0,41.0,29.80,West,277,3.0,-999.0,35,-99.99,,,-99.99,,2013-06-16 00:43:00,
2013-06-15 18:52:00,70.0,41.0,29.80,West,277,3.0,-999.0,35,-99.99,,,-99.99,,2013-06-16 00:52:00,
2013-06-15 19:01:00,70.0,44.0,29.75,NW,313,1.0,-999.0,39,-99.99,,,-99.99,,2013-06-16 01:01:00,
2013-06-15 19:11:00,69.0,47.0,29.75,NW,313,0.0,-999.0,46,-99.99,,,-99.99,,2013-06-16 01:11:00,
2013-06-15 19:22:00,69.0,47.0,29.75,NW,313,0.0,-999.0,46,-99.99,,,-99.99,,2013-06-16 01:22:00,
2013-06-15 19:33:00,69.0,46.0,29.76,ENE,59,1.0,-999.0,43,-99.99,,,-99.99,,2013-06-16 01:33:00,
2013-06-15 19:42:00,68.0,45.0,29.72,East,90,3.0,-999.0,43,-99.99,,,-99.99,,2013-06-16 01:42:00,
2013-06-15 19:53:00,68.0,45.0,29.72,East,90,3.0,-999.0,43,-99.99,,,-99.99,,2013-06-16 01:53:00,
2013-06-15 20:01:00,69.0,44.0,29.65,ESE,103,4.0,-999.0,40,-99.99,,,-99.99,,2013-06-16 02:01:00,
2013-06-15 20:12:00,69.0,44.0,29.65,ESE,103,0.0,-999.0,40,-99.99,,,-99.99,,2013-06-16 02:12:00,
2013-06-15 20:22:00,69.0,44.0,29.65,ESE,103,0.0,-999.0,40,-99.99,,,-99.99,,2013-06-16 02:22:00,
2013-06-15 20:33:00,70.0,40.0,29.67,SSE,154,2.0,-999.0,34,-99.99,,,-99.99,,2013-06-16 02:33:00,
2013-06-15 20:43:00,71.0,38.0,29.68,SSW,212,4.0,-999.0,30,-99.99,,,-99.99,,2013-06-16 02:43:00,
2013-06-15 20:53:00,71.0,38.0,29.68,SSW,212,4.0,-999.0,30,-99.99,,,-99.99,,2013-06-16 02:53:00,
2013-06-15 21:02:00,72.0,37.0,29.62,SW,228,10.0,-999.0,28,-99.99,,,-99.99,,2013-06-16 03:02:00,
2013-06-15 21:11:00,71.0,39.0,29.62,ESE,107,4.0,-999.0,31,-99.99,,,-99.99,,2013-06-16 03:11:00,
2013-06-15 21:22:00,71.0,39.0,29.62,ESE,107,4.0,-999.0,31,-99.99,,,-99.99,,2013-06-16 03:22:00,
2013-06-15 21:33:00,70.0,41.0,29.62,South,186,0.0,-999.0,35,-99.99,,,-99.99,,2013-06-16 03:33:00,
2013-06-15 21:43:00,68.0,43.0,29.63,South,186,0.0,-999.0,41,-99.99,,,-99.99,,2013-06-16 03:43:00,
2013-06-15 21:53:00,68.0,43.0,29.63,South,186,0.0,-999.0,41,-99.99,,,-99.99,,2013-06-16 03:53:00,
2013-06-15 22:01:00,65.0,43.0,29.63,SSW,205,1.0,-999.0,44,-99.99,,,-99.99,,2013-06-16 04:01:00,
2013-06-15 22:12:00,64.0,43.0,29.65,WSW,252,1.0,-999.0,47,-99.99,,,-99.99,,2013-06-16 04:12:00,
2013-06-15 22:23:00,64.0,43.0,29.65,WSW,252,1.0,-999.0,47,-99.99,,,-99.99,,2013-06-16 04:23:00,
2013-06-15 22:33:00,63.0,45.0,29.67,West,265,4.0,-999.0,52,-99.99,,,-99.99,,2013-06-16 04:33:00,
2013-06-15 22:53:00,61.0,47.0,29.67,West,269,4.0,-999.0,59,-99.99,,,-99.99,,2013-06-16 04:53:00,
2013-06-15 23:01:00,59.0,46.0,29.67,West,269,0.0,-999.0,63,-99.99,,,-99.99,,2013-06-16 05:01:00,
2013-06-15 23:11:00,59.0,48.0,29.68,West,269,3.0,-999.0,67,-99.99,,,-99.99,,2013-06-16 05:11:00,
2013-06-15 23:22:00,59.0,48.0,29.68,West,269,3.0,-999.0,67,-99.99,,,-99.99,,2013-06-16 05:22:00,
2013-06-15 23:34:00,58.0,48.0,29.68,West,269,0.0,-999.0,69,-99.99,,,-99.99,,2013-06-16 05:34:00,